Home > Weather > Bengaluru > Past weeks

Flag for India Past Weather in Bengaluru, Karnataka, India — Yesterday and Last 2 Weeks

Now
91 °F

Passing clouds.


Feels Like: 93 °F
Forecast: 75 / 96 °F
Wind: 7 mph from Southwest

Location: Bangalore / Hindustan

Current Time: May 24, 2016 at 5:28:36 PM

Latest Report: May 24, 2016 at 5:00 PM


Visibility: N/A

Pressure: 29.83 "Hg (27.05 "Hg at 876m altitude)

Humidity: 41%

Dew Point: 64 °F

Location of BengaluruLocation

Past Weather in Bengaluru — Graph

°F

Bengaluru Temperature Yesterday

Maximum temperature yesterday: 93 °F (at 3:30 PM)
Minimum temperature yesterday: 73 °F (at 5:30 AM)
Average temperature yesterday: 85 °F

High & Low Weather Summary for the Past Weeks

 TemperatureHumidityPressure
High93 °F (May 13, 3:30 PM)100% (May 18, 8:30 PM)30.01 "Hg (May 18, 8:30 PM)
Low68 °F (May 18, 8:30 PM)34% (May 13, 3:30 PM)29.65 "Hg (May 18, 5:30 PM)
Average83 °F60%29.87 "Hg
* Reported May 9 4:30 PM — May 24 4:30 PM, Bengaluru, Weather by CustomWeather, © 2016

Note: Actual official high and low records may vary slightly from our data, if they occured in-between our weather recording intervals... More about our weather records

Advertising

Bengaluru Weather History for the Previous 24 Hours

Scroll right to see more
 ConditionsComfort  
Time TempWeatherWind HumidityBarometerVisibility
4:30 PM
Tue, May 24
91 °FPassing clouds.9 mph41%29.83 "HgN/A
4:00 PM91 °FPassing clouds.7 mph41%29.83 "HgN/A
3:30 PM91 °FPassing clouds.N/A41%29.83 "HgN/A
3:00 PM93 °FPassing clouds.7 mph39%29.86 "HgN/A
2:30 PM93 °FPassing clouds.8 mph39%29.86 "HgN/A
2:00 PM91 °FPassing clouds.6 mph41%29.89 "HgN/A
1:30 PM91 °FPassing clouds.8 mph44%29.89 "HgN/A
1:00 PM90 °FPassing clouds.9 mph46%29.89 "HgN/A
12:30 PM90 °FSunny.12 mph46%29.92 "Hg10 mi
12:00 PM88 °FSunny.14 mph52%29.92 "Hg10 mi
11:30 AM86 °FSunny.12 mph52%29.92 "Hg10 mi
11:00 AM86 °FPassing clouds.14 mph55%29.95 "HgN/A
10:30 AM84 °FPassing clouds.12 mph58%29.95 "HgN/A
10:00 AM82 °FPassing clouds.15 mph58%29.98 "HgN/A
9:30 AM82 °FPassing clouds.14 mph62%29.98 "HgN/A
9:00 AM81 °FPassing clouds.14 mph66%29.98 "HgN/A
8:30 AM79 °FPassing clouds.12 mph70%29.98 "HgN/A
8:00 AM77 °FScattered clouds.14 mph74%29.98 "HgN/A
7:30 AM77 °FScattered clouds.12 mph74%29.98 "HgN/A
7:00 AM75 °FScattered clouds.12 mph78%29.95 "HgN/A
6:00 AM73 °FPassing clouds.9 mph83%29.95 "HgN/A
5:30 AM75 °FPassing clouds.7 mph78%29.95 "HgN/A
11:30 PM
Mon, May 23
81 °FClear.9 mph66%29.95 "Hg10 mi
10:30 PM82 °FClear.9 mph58%29.95 "Hg10 mi
9:30 PM86 °FClear.9 mph52%29.92 "Hg10 mi
8:30 PM86 °FClear.9 mph49%29.92 "Hg10 mi
7:30 PM86 °FClear.3 mph49%29.89 "Hg10 mi
6:30 PM90 °FSunny.5 mph43%29.86 "Hg10 mi
5:30 PM90 °FPassing clouds.9 mph43%29.86 "HgN/A
5:00 PM90 °FPassing clouds.9 mph43%29.86 "HgN/A
Weather by CustomWeather, © 2016

See weather overviewHow to use our weather pages